Regional Weather Roundup
Issued by NWS Jackson, KY

Home | Current Version | Previous Version | Graphics & Text | Print | Product List | Glossary On
Versions: 1 2 3 4 5 6 7 8 9 10 11 12 13 14 15 16 17 18 19 20 21 22 23 24 25 26
000
ASUS43 KJKL 170410
RWRJKL

EAST KENTUCKY HOURLY WEATHER ROUNDUP
NATIONAL WEATHER SERVICE JACKSON KY
1100 PM EST FRI FEB 16 2018

NOTE: "FAIR" INDICATES FEW OR NO CLOUDS BELOW 12,000 FEET WITH
NO SIGNIFICANT WEATHER AND/OR OBSTRUCTIONS TO VISIBILITY.

* THESE REPORTS ARE NOT UNDER NWS QUALITY CONTROL AND MAY NOT
  REPORT WEATHER SUCH AS PRECIPITATION AND FOG.

KYZ079-080-083-085-087-088-110-112-115-119-120-170500
...EASTERN KENTUCKY...

CITY           SKY/WX    TMP DP  RH WIND       PRES   REMARKS
JACKSON        CLOUDY    39  35  86 N5        30.23F
LONDON         CLOUDY    40  35  83 N6        30.24F
SOMERSET*      CLOUDY    37  32  81 N8        30.26F WCI  31
WILLIAMSBURG*  CLOUDY    39  39 100 N5        30.24S
MIDDLESBORO*   CLOUDY    43  39  86 CALM      30.24S
HARLAN APT*    CLOUDY    41  36  81 CALM      30.22S
PIKE CO APT*   CLOUDY    39  39  99 CALM      30.23S
BIG SANDY APT* CLOUDY    40  37  89 CALM      30.24S
MOREHEAD APT*  CLOUDY    37  30  75 N7        30.28F WCI  32
ASHLAND*         N/A     35  30  82 N3        30.29S
$$

KYZ035-036-041-042-044-050-067-078-099-170500
...CENTRAL KENTUCKY...

CITY           SKY/WX    TMP DP  RH WIND       PRES   REMARKS
MT STERLING*   CLOUDY    37  32  81 N3        30.29R
FLEMING/MASON* CLOUDY    33  28  80 NE3       30.29F
DANVILLE*      CLOUDY    36  32  87 N5        30.28S WCI  32
LEXINGTON      CLOUDY    38  31  76 N5        30.28S WCI  34
FRANKFORT      CLOUDY    37  29  72 NW5       30.27F WCI  33
LOUISVILLE     CLOUDY    38  29  70 N5        30.30S WCI  34
LEBANON*       CLOUDY    37  30  75 CALM      30.28F
GLASGOW*       CLOUDY    40  35  83 N5        30.28R
BOWLING GREEN  CLOUDY    42  35  76 N5        30.29S
$$

KYZ091>093-OHZ055-061-077-WVZ005-015-034-035-042-170500
...SOUTHERN OHIO/WEST VIRGINIA...

CITY           SKY/WX    TMP DP  RH WIND       PRES   REMARKS
COVINGTON      CLOUDY    34  28  79 N6        30.28S WCI  29
COLUMBUS       CLOUDY    34  26  72 N6        30.28S WCI  29
DAYTON         CLOUDY    30  25  81 N7        30.29S WCI  23
WILMINGTON     CLOUDY    33  23  66 N5        30.27F WCI  29
HUNTINGTON     CLOUDY    38  30  73 N5        30.26S WCI  34
CHARLESTON     CLOUDY    39  34  82 N5        30.25R
BECKLEY        CLOUDY    35  31  85 NW8       30.18S WCI  29
BLUEFIELD      CLOUDY    35  32  88 NW6       30.19R WCI  30
LOGAN CO APT*  CLOUDY    39  36  87 CALM      30.22S
$$

VAZ002-007-008-TNZ017-027-036-066-071-170500
...SOUTHWEST VIRGINIA/EAST TENNESSEE...

CITY           SKY/WX    TMP DP  RH WIND       PRES   REMARKS
WISE*          CLOUDY    37  37 100 N3        30.20S FOG
JONESVILLE*    CLOUDY    45  39  81 CALM      30.24R
ABINGDON*      CLOUDY    44  41  89 CALM      30.20S
BRISTOL        MOCLDY    45  42  89 N5        30.20S
MORRISTOWN*    MOCLDY    43  41  93 N5        30.20S
SEVIERVILLE*   CLOUDY    46  43  87 N6        30.22S
KNOXVILLE      MOCLDY    45  42  89 N7        30.20F
LAFOLLETTE*    CLOUDY    45  37  76 NE5       30.26F
OAK RIDGE        N/A     45  39  79 VRB3      30.24S
CROSSVILLE     CLOUDY    40  37  89 NE7       30.21S
NASHVILLE      CLOUDY    43  35  73 N7        30.26F
$$

...KEY TO REMARKS...
VSB - VISIBILITY IN MILES
WCI - WIND CHILL INDEX
HX  - HEAT INDEX

$$




USA.gov is the U.S. government's official web portal to all federal, state and local government web resources and services.